Year,Month,Day,Hour,Minute,Value (Times are PST for temperature in C)
2009,07,31,00,00,21.60
2009,07,31,00,01,21.60
2009,07,31,00,02,21.60
2009,07,31,00,03,21.60
2009,07,31,00,04,21.60
2009,07,31,00,05,21.60
2009,07,31,00,06,21.60
2009,07,31,00,07,21.60
2009,07,31,00,08,21.60
2009,07,31,00,09,21.60
2009,07,31,00,10,21.60
2009,07,31,00,11,21.50
2009,07,31,00,12,21.40
2009,07,31,00,13,21.40
2009,07,31,00,14,21.40
2009,07,31,00,15,21.30
2009,07,31,00,16,21.30
2009,07,31,00,17,21.30
2009,07,31,00,18,21.30
2009,07,31,00,19,21.30
2009,07,31,00,20,21.30
2009,07,31,00,21,21.20
2009,07,31,00,22,21.20
2009,07,31,00,23,21.20
2009,07,31,00,24,21.20
2009,07,31,00,25,21.20
2009,07,31,00,26,21.10
2009,07,31,00,27,21.10
2009,07,31,00,28,21.10
2009,07,31,00,29,21.10
2009,07,31,00,30,21.10
2009,07,31,00,31,21.10
2009,07,31,00,32,21.10
2009,07,31,00,33,21.10
2009,07,31,00,34,21.10
2009,07,31,00,35,21.10
2009,07,31,00,36,21.10
2009,07,31,00,37,21.20
2009,07,31,00,38,21.20
2009,07,31,00,39,21.20
2009,07,31,00,40,21.20
2009,07,31,00,41,21.20
2009,07,31,00,42,21.20
2009,07,31,00,43,21.20
2009,07,31,00,44,21.20
2009,07,31,00,45,21.20
2009,07,31,00,46,21.20
2009,07,31,00,47,21.10
2009,07,31,00,48,21.10
2009,07,31,00,49,21.10
2009,07,31,00,50,21.10
2009,07,31,00,51,21.10
2009,07,31,00,52,21.10
2009,07,31,00,53,21.10
2009,07,31,00,54,21.10
2009,07,31,00,55,21.10
2009,07,31,00,56,21.00
2009,07,31,00,57,21.00
2009,07,31,00,58,20.90
2009,07,31,00,59,20.80
2009,07,31,01,00,20.70
2009,07,31,01,01,20.60
2009,07,31,01,02,20.40
2009,07,31,01,03,20.30
2009,07,31,01,04,20.20
2009,07,31,01,05,20.10
2009,07,31,01,06,20.00
2009,07,31,01,07,19.90
2009,07,31,01,08,19.80
2009,07,31,01,09,19.70
2009,07,31,01,10,19.60
2009,07,31,01,11,19.50
2009,07,31,01,12,19.40
2009,07,31,01,13,19.30
2009,07,31,01,14,19.10
2009,07,31,01,15,19.00
2009,07,31,01,16,18.90
2009,07,31,01,17,18.90
2009,07,31,01,18,18.80
2009,07,31,01,19,18.70
2009,07,31,01,20,18.60
2009,07,31,01,21,18.50
2009,07,31,01,22,18.40
2009,07,31,01,23,18.30
2009,07,31,01,24,18.20
2009,07,31,01,25,18.20
2009,07,31,01,26,18.20
2009,07,31,01,27,18.20
2009,07,31,01,28,18.20
2009,07,31,01,29,18.20
2009,07,31,01,30,18.20
2009,07,31,01,31,18.20
2009,07,31,01,32,18.20
2009,07,31,01,33,18.20
2009,07,31,01,34,18.20
2009,07,31,01,35,18.20
2009,07,31,01,36,18.20
2009,07,31,01,37,18.30
2009,07,31,01,38,18.30
2009,07,31,01,39,18.40
2009,07,31,01,40,18.40
2009,07,31,01,41,18.50
2009,07,31,01,42,18.50
2009,07,31,01,43,18.40
2009,07,31,01,44,18.40
2009,07,31,01,45,18.40
2009,07,31,01,46,18.40
2009,07,31,01,47,18.40
2009,07,31,01,48,18.40
2009,07,31,01,49,18.40
2009,07,31,01,50,18.40
2009,07,31,01,51,18.50
2009,07,31,01,52,18.50
2009,07,31,01,53,18.60
2009,07,31,01,54,18.60
2009,07,31,01,55,18.70
2009,07,31,01,56,18.70
2009,07,31,01,57,18.80
2009,07,31,01,58,18.90
2009,07,31,01,59,18.90
2009,07,31,02,00,18.90
2009,07,31,02,01,19.00
2009,07,31,02,02,19.10
2009,07,31,02,03,19.10
2009,07,31,02,04,19.10
2009,07,31,02,05,19.10
2009,07,31,02,06,19.10
2009,07,31,02,07,19.10
2009,07,31,02,08,19.10
2009,07,31,02,09,19.10
2009,07,31,02,10,19.10
2009,07,31,02,11,19.10
2009,07,31,02,12,19.10
2009,07,31,02,13,19.10
2009,07,31,02,14,19.10
2009,07,31,02,15,19.10
2009,07,31,02,16,19.10
2009,07,31,02,17,19.10
2009,07,31,02,18,19.10
2009,07,31,02,19,19.10
2009,07,31,02,20,19.10
2009,07,31,02,21,19.10
2009,07,31,02,22,19.10
2009,07,31,02,23,19.10
2009,07,31,02,24,19.10
2009,07,31,02,25,19.10
2009,07,31,02,26,19.10
2009,07,31,02,27,19.10
2009,07,31,02,28,19.10
2009,07,31,02,29,19.10
2009,07,31,02,30,19.10
2009,07,31,02,31,19.00
2009,07,31,02,32,18.70
2009,07,31,02,33,18.40
2009,07,31,02,34,18.10
2009,07,31,02,35,17.80
2009,07,31,02,36,17.50
2009,07,31,02,37,17.30
2009,07,31,02,38,17.10
2009,07,31,02,39,16.90
2009,07,31,02,40,16.80
2009,07,31,02,41,16.70
2009,07,31,02,42,16.50
2009,07,31,02,43,16.40
2009,07,31,02,44,16.30
2009,07,31,02,45,16.20
2009,07,31,02,46,16.10
2009,07,31,02,47,16.10
2009,07,31,02,48,16.00
2009,07,31,02,49,15.90
2009,07,31,02,50,15.90
2009,07,31,02,51,15.80
2009,07,31,02,52,15.80
2009,07,31,02,53,15.80
2009,07,31,02,54,15.60
2009,07,31,02,55,15.60
2009,07,31,02,56,15.60
2009,07,31,02,57,15.50
2009,07,31,02,58,15.60
2009,07,31,02,59,15.60
2009,07,31,03,00,15.70
2009,07,31,03,01,15.70
2009,07,31,03,02,15.70
2009,07,31,03,03,15.80
2009,07,31,03,04,15.80
2009,07,31,03,05,15.80
2009,07,31,03,06,15.90
2009,07,31,03,07,16.00
2009,07,31,03,08,16.10
2009,07,31,03,09,16.10
2009,07,31,03,10,16.20
2009,07,31,03,11,16.30
2009,07,31,03,12,16.30
2009,07,31,03,13,16.40
2009,07,31,03,14,16.40
2009,07,31,03,15,16.40
2009,07,31,03,16,16.40
2009,07,31,03,17,16.60
2009,07,31,03,18,16.60
2009,07,31,03,19,16.60
2009,07,31,03,20,16.60
2009,07,31,03,21,16.60
2009,07,31,03,22,16.70
2009,07,31,03,23,16.70
2009,07,31,03,24,16.90
2009,07,31,03,25,16.90
2009,07,31,03,26,17.00
2009,07,31,03,27,17.20
2009,07,31,03,28,17.30
2009,07,31,03,29,17.40
2009,07,31,03,30,17.50
2009,07,31,03,31,17.60
2009,07,31,03,32,17.70
2009,07,31,03,33,17.70
2009,07,31,03,34,17.70
2009,07,31,03,35,17.80
2009,07,31,03,36,17.80
2009,07,31,03,37,17.80
2009,07,31,03,38,17.80
2009,07,31,03,39,17.80
2009,07,31,03,40,17.80
2009,07,31,03,41,17.80
2009,07,31,03,42,17.80
2009,07,31,03,43,17.70
2009,07,31,03,44,17.70
2009,07,31,03,45,17.70
2009,07,31,03,46,17.70
2009,07,31,03,47,17.70
2009,07,31,03,48,17.60
2009,07,31,03,49,17.60
2009,07,31,03,50,17.60
2009,07,31,03,51,17.50
2009,07,31,03,52,17.50
2009,07,31,03,53,17.50
2009,07,31,03,54,17.40
2009,07,31,03,55,17.40
2009,07,31,03,56,17.30
2009,07,31,03,57,17.30
2009,07,31,03,58,17.30
2009,07,31,03,59,17.30
2009,07,31,04,00,17.30
2009,07,31,04,01,17.20
2009,07,31,04,02,17.20
2009,07,31,04,03,17.10
2009,07,31,04,04,17.10
2009,07,31,04,05,17.00
2009,07,31,04,06,17.00
2009,07,31,04,07,17.00
2009,07,31,04,08,16.90
2009,07,31,04,09,16.90
2009,07,31,04,10,16.90
2009,07,31,04,11,16.90
2009,07,31,04,12,16.80
2009,07,31,04,13,16.80
2009,07,31,04,14,16.80
2009,07,31,04,15,16.80
2009,07,31,04,16,16.80
2009,07,31,04,17,16.80
2009,07,31,04,18,16.70
2009,07,31,04,19,16.70
2009,07,31,04,20,16.70
2009,07,31,04,21,16.70
2009,07,31,04,22,16.70
2009,07,31,04,23,16.60
2009,07,31,04,24,16.60
2009,07,31,04,25,16.60
2009,07,31,04,26,16.60
2009,07,31,04,27,16.50
2009,07,31,04,28,16.40
2009,07,31,04,29,16.40
2009,07,31,04,30,16.40
2009,07,31,04,31,16.40
2009,07,31,04,32,16.40
2009,07,31,04,33,16.40
2009,07,31,04,34,16.30
2009,07,31,04,35,16.30
2009,07,31,04,36,16.30
2009,07,31,04,37,16.30
2009,07,31,04,38,16.20
2009,07,31,04,39,16.20
2009,07,31,04,40,16.10
2009,07,31,04,41,16.10
2009,07,31,04,42,16.10
2009,07,31,04,43,16.00
2009,07,31,04,44,15.90
2009,07,31,04,45,15.90
2009,07,31,04,46,15.80
2009,07,31,04,47,15.80
2009,07,31,04,48,15.80
2009,07,31,04,49,15.70
2009,07,31,04,50,15.70
2009,07,31,04,51,15.60
2009,07,31,04,52,15.60
2009,07,31,04,53,15.50
2009,07,31,04,54,15.50
2009,07,31,04,55,15.40
2009,07,31,04,56,15.40
2009,07,31,04,57,15.40
2009,07,31,04,58,15.40
2009,07,31,04,59,15.30
2009,07,31,05,00,15.30
2009,07,31,05,01,15.30
2009,07,31,05,02,15.30
2009,07,31,05,03,15.30
2009,07,31,05,04,15.30
2009,07,31,05,05,15.30
2009,07,31,05,06,15.30
2009,07,31,05,07,15.30
2009,07,31,05,08,15.30
2009,07,31,05,09,15.30
2009,07,31,05,10,15.30
2009,07,31,05,11,15.30
2009,07,31,05,12,15.30
2009,07,31,05,13,15.30
2009,07,31,05,14,15.30
2009,07,31,05,15,15.30
2009,07,31,05,16,15.30
2009,07,31,05,17,15.30
2009,07,31,05,18,15.30
2009,07,31,05,19,15.30
2009,07,31,05,20,15.30
2009,07,31,05,21,15.30
2009,07,31,05,22,15.30
2009,07,31,05,23,15.30
2009,07,31,05,24,15.30
2009,07,31,05,25,15.20
2009,07,31,05,26,15.20
2009,07,31,05,27,15.20
2009,07,31,05,28,15.20
2009,07,31,05,29,15.10
2009,07,31,05,30,15.10
2009,07,31,05,31,15.10
2009,07,31,05,32,15.10
2009,07,31,05,33,15.00
2009,07,31,05,34,15.00
2009,07,31,05,35,15.00
2009,07,31,05,36,15.00
2009,07,31,05,37,15.00
2009,07,31,05,38,15.00
2009,07,31,05,39,15.00
2009,07,31,05,40,14.90
2009,07,31,05,41,14.90
2009,07,31,05,42,14.90
2009,07,31,05,43,14.90
2009,07,31,05,44,14.90
2009,07,31,05,45,14.90
2009,07,31,05,46,14.90
2009,07,31,05,47,14.90
2009,07,31,05,48,14.90
2009,07,31,05,49,14.90
2009,07,31,05,50,14.80
2009,07,31,05,51,14.80
2009,07,31,05,52,14.80
2009,07,31,05,53,14.80
2009,07,31,05,54,14.80
2009,07,31,05,55,14.80
2009,07,31,05,56,14.80
2009,07,31,05,57,14.80
2009,07,31,05,58,14.80
2009,07,31,05,59,14.80
2009,07,31,06,00,14.80
2009,07,31,06,01,14.80
2009,07,31,06,02,14.80
2009,07,31,06,03,14.80
2009,07,31,06,04,14.80
2009,07,31,06,05,14.80
2009,07,31,06,06,14.80
2009,07,31,06,07,14.80
2009,07,31,06,08,14.80
2009,07,31,06,09,14.80
2009,07,31,06,10,14.80
2009,07,31,06,11,14.80
2009,07,31,06,12,14.80
2009,07,31,06,13,14.80
2009,07,31,06,14,14.80
2009,07,31,06,15,14.80
2009,07,31,06,16,14.90
2009,07,31,06,17,14.90
2009,07,31,06,18,14.90
2009,07,31,06,19,14.90
2009,07,31,06,20,14.90
2009,07,31,06,21,14.90
2009,07,31,06,22,14.90
2009,07,31,06,23,14.90
2009,07,31,06,24,14.90
2009,07,31,06,25,14.90
2009,07,31,06,26,14.90
2009,07,31,06,27,14.90
2009,07,31,06,28,14.90
2009,07,31,06,29,14.90
2009,07,31,06,30,15.00
2009,07,31,06,31,15.00
2009,07,31,06,32,15.00
2009,07,31,06,33,15.00
2009,07,31,06,34,15.00
2009,07,31,06,35,15.10
2009,07,31,06,36,15.10
2009,07,31,06,37,15.10
2009,07,31,06,38,15.10
2009,07,31,06,39,15.10
2009,07,31,06,40,15.10
2009,07,31,06,41,15.10
2009,07,31,06,42,15.20
2009,07,31,06,43,15.20
2009,07,31,06,44,15.20
2009,07,31,06,45,15.20
2009,07,31,06,46,15.20
2009,07,31,06,47,15.20
2009,07,31,06,48,15.20
2009,07,31,06,49,15.20
2009,07,31,06,50,15.30
2009,07,31,06,51,15.30
2009,07,31,06,52,15.30
2009,07,31,06,53,15.30
2009,07,31,06,54,15.30
2009,07,31,06,55,15.30
2009,07,31,06,56,15.40
2009,07,31,06,57,15.40
2009,07,31,06,58,15.40
2009,07,31,06,59,15.40
2009,07,31,07,00,15.40
2009,07,31,07,01,15.40
2009,07,31,07,02,15.40
2009,07,31,07,03,15.40
2009,07,31,07,04,15.40
2009,07,31,07,05,15.40
2009,07,31,07,06,15.40
2009,07,31,07,07,15.40
2009,07,31,07,08,15.40
2009,07,31,07,09,15.40
2009,07,31,07,10,15.50
2009,07,31,07,11,15.50
2009,07,31,07,12,15.50
2009,07,31,07,13,15.50
2009,07,31,07,14,15.60
2009,07,31,07,15,15.60
2009,07,31,07,16,15.70
2009,07,31,07,17,15.70
2009,07,31,07,18,15.80
2009,07,31,07,19,15.80
2009,07,31,07,20,15.80
2009,07,31,07,21,15.80
2009,07,31,07,22,15.80
2009,07,31,07,23,15.80
2009,07,31,07,24,15.80
2009,07,31,07,25,15.80
2009,07,31,07,26,15.80
2009,07,31,07,27,15.90
2009,07,31,07,28,15.90
2009,07,31,07,29,16.00
2009,07,31,07,30,16.10
2009,07,31,07,31,16.10
2009,07,31,07,32,16.20
2009,07,31,07,33,16.20
2009,07,31,07,34,16.20
2009,07,31,07,35,16.20
2009,07,31,07,36,16.30
2009,07,31,07,37,16.30
2009,07,31,07,38,16.40
2009,07,31,07,39,16.40
2009,07,31,07,40,16.40
2009,07,31,07,41,16.40
2009,07,31,07,42,16.40
2009,07,31,07,43,16.40
2009,07,31,07,44,16.40
2009,07,31,07,45,16.50
2009,07,31,07,46,16.60
2009,07,31,07,47,16.60
2009,07,31,07,48,16.60
2009,07,31,07,49,16.70
2009,07,31,07,50,16.70
2009,07,31,07,51,16.70
2009,07,31,07,52,16.70
2009,07,31,07,53,16.70
2009,07,31,07,54,16.70
2009,07,31,07,55,16.70
2009,07,31,07,56,16.70
2009,07,31,07,57,16.70
2009,07,31,07,58,16.70
2009,07,31,07,59,16.70
2009,07,31,08,00,16.80
2009,07,31,08,01,16.90
2009,07,31,08,02,16.90
2009,07,31,08,03,17.00
2009,07,31,08,04,17.00
2009,07,31,08,05,17.10
2009,07,31,08,06,17.20
2009,07,31,08,07,17.20
2009,07,31,08,08,17.30
2009,07,31,08,09,17.30
2009,07,31,08,10,17.30
2009,07,31,08,11,17.40
2009,07,31,08,12,17.40
2009,07,31,08,13,17.40
2009,07,31,08,14,17.40
2009,07,31,08,15,17.40
2009,07,31,08,16,17.30
2009,07,31,08,17,17.30
2009,07,31,08,18,17.30
2009,07,31,08,19,17.40
2009,07,31,08,20,17.40
2009,07,31,08,21,17.40
2009,07,31,08,22,17.40
2009,07,31,08,23,17.40
2009,07,31,08,24,17.40
2009,07,31,08,25,17.50
2009,07,31,08,26,17.50
2009,07,31,08,27,17.60
2009,07,31,08,28,17.60
2009,07,31,08,29,17.60
2009,07,31,08,30,17.60
2009,07,31,08,31,17.60
2009,07,31,08,32,17.60
2009,07,31,08,33,17.70
2009,07,31,08,34,17.60
2009,07,31,08,35,17.60
2009,07,31,08,36,17.70
2009,07,31,08,37,17.70
2009,07,31,08,38,17.70
2009,07,31,08,39,17.70
2009,07,31,08,40,17.80
2009,07,31,08,41,17.80
2009,07,31,08,42,17.90
2009,07,31,08,43,17.90
2009,07,31,08,44,17.90
2009,07,31,08,45,17.90
2009,07,31,08,46,17.80
2009,07,31,08,47,17.80
2009,07,31,08,48,17.80
2009,07,31,08,49,17.80
2009,07,31,08,50,17.90
2009,07,31,08,51,17.90
2009,07,31,08,52,17.90
2009,07,31,08,53,17.90
2009,07,31,08,54,17.90
2009,07,31,08,55,17.90
2009,07,31,08,56,17.80
2009,07,31,08,57,17.60
2009,07,31,08,58,17.50
2009,07,31,08,59,17.30
2009,07,31,09,00,17.20
2009,07,31,09,01,17.00
2009,07,31,09,02,17.00
2009,07,31,09,03,16.90
2009,07,31,09,04,16.80
2009,07,31,09,05,16.80
2009,07,31,09,06,16.80
2009,07,31,09,07,16.80
2009,07,31,09,08,16.90
2009,07,31,09,09,17.00
2009,07,31,09,10,17.10
2009,07,31,09,11,17.10
2009,07,31,09,12,17.10
2009,07,31,09,13,17.10
2009,07,31,09,14,17.00
2009,07,31,09,15,17.00
2009,07,31,09,16,17.00
2009,07,31,09,17,17.00
2009,07,31,09,18,17.00
2009,07,31,09,19,17.10
2009,07,31,09,20,17.20
2009,07,31,09,21,17.30
2009,07,31,09,22,17.40
2009,07,31,09,23,17.50
2009,07,31,09,24,17.60
2009,07,31,09,25,17.70
2009,07,31,09,26,17.80
2009,07,31,09,27,17.90
2009,07,31,09,28,17.90
2009,07,31,09,29,17.90
2009,07,31,09,30,17.90
2009,07,31,09,31,18.00
2009,07,31,09,32,18.10
2009,07,31,09,33,18.10
2009,07,31,09,34,18.10
2009,07,31,09,35,18.20
2009,07,31,09,36,18.20
2009,07,31,09,37,18.30
2009,07,31,09,38,18.30
2009,07,31,09,39,18.40
2009,07,31,09,40,18.50
2009,07,31,09,41,18.60
2009,07,31,09,42,18.60
2009,07,31,09,43,18.60
2009,07,31,09,44,18.60
2009,07,31,09,45,18.70
2009,07,31,09,46,18.80
2009,07,31,09,47,18.90
2009,07,31,09,48,18.80
2009,07,31,09,49,18.80
2009,07,31,09,50,18.80
2009,07,31,09,51,18.80
2009,07,31,09,52,18.90
2009,07,31,09,53,18.90
2009,07,31,09,54,18.90
2009,07,31,09,55,18.90
2009,07,31,09,56,18.80
2009,07,31,09,57,18.80
2009,07,31,09,58,18.90
2009,07,31,09,59,18.90
2009,07,31,10,00,18.90
2009,07,31,10,01,18.90
2009,07,31,10,02,18.80
2009,07,31,10,03,18.80
2009,07,31,10,04,18.90
2009,07,31,10,05,18.90
2009,07,31,10,06,19.00
2009,07,31,10,07,19.10
2009,07,31,10,08,19.20
2009,07,31,10,09,19.30
2009,07,31,10,10,19.40
2009,07,31,10,11,19.40
2009,07,31,10,12,19.50
2009,07,31,10,13,19.50
2009,07,31,10,14,19.60
2009,07,31,10,15,19.60
2009,07,31,10,16,19.50
2009,07,31,10,17,19.40
2009,07,31,10,18,19.40
2009,07,31,10,19,19.40
2009,07,31,10,20,19.50
2009,07,31,10,21,19.40
2009,07,31,10,22,19.40
2009,07,31,10,23,19.40
2009,07,31,10,24,19.40
2009,07,31,10,25,19.40
2009,07,31,10,26,19.40
2009,07,31,10,27,19.40
2009,07,31,10,28,19.40
2009,07,31,10,29,19.50
2009,07,31,10,30,19.50
2009,07,31,10,31,19.50
2009,07,31,10,32,19.40
2009,07,31,10,33,19.40
2009,07,31,10,34,19.50
2009,07,31,10,35,19.40
2009,07,31,10,36,19.30
2009,07,31,10,37,19.10
2009,07,31,10,38,19.10
2009,07,31,10,39,19.10
2009,07,31,10,40,19.00
2009,07,31,10,41,18.90
2009,07,31,10,42,18.70
2009,07,31,10,43,18.50
2009,07,31,10,44,18.40
2009,07,31,10,45,18.30
2009,07,31,10,46,18.20
2009,07,31,10,47,18.00
2009,07,31,10,48,17.90
2009,07,31,10,49,17.90
2009,07,31,10,50,17.80
2009,07,31,10,51,17.70
2009,07,31,10,52,17.50
2009,07,31,10,53,17.50
2009,07,31,10,54,17.40
2009,07,31,10,55,17.40
2009,07,31,10,56,17.50
2009,07,31,10,57,17.60
2009,07,31,10,58,17.70
2009,07,31,10,59,17.70
2009,07,31,11,00,17.80
2009,07,31,11,01,17.90
2009,07,31,11,02,17.90
2009,07,31,11,03,18.00
2009,07,31,11,04,18.10
2009,07,31,11,05,18.00
2009,07,31,11,06,17.90
2009,07,31,11,07,17.80
2009,07,31,11,08,17.70
2009,07,31,11,09,17.60
2009,07,31,11,10,17.50
2009,07,31,11,11,17.30
2009,07,31,11,12,17.10
2009,07,31,11,13,17.10
2009,07,31,11,14,17.10
2009,07,31,11,15,17.20
2009,07,31,11,16,17.30
2009,07,31,11,17,17.30
2009,07,31,11,18,17.30
2009,07,31,11,19,17.30
2009,07,31,11,20,17.20
2009,07,31,11,21,17.30
2009,07,31,11,22,17.40
2009,07,31,11,23,17.50
2009,07,31,11,24,17.70
2009,07,31,11,25,17.90
2009,07,31,11,26,18.00
2009,07,31,11,27,18.20
2009,07,31,11,28,18.20
2009,07,31,11,29,18.10
2009,07,31,11,30,18.00
2009,07,31,11,31,18.10
2009,07,31,11,32,18.10
2009,07,31,11,33,18.20
2009,07,31,11,34,18.20
2009,07,31,11,35,18.30
2009,07,31,11,36,18.50
2009,07,31,11,37,18.60
2009,07,31,11,38,18.70
2009,07,31,11,39,18.70
2009,07,31,11,40,18.70
2009,07,31,11,41,18.90
2009,07,31,11,42,19.00
2009,07,31,11,43,19.10
2009,07,31,11,44,19.10
2009,07,31,11,45,19.10
2009,07,31,11,46,19.00
2009,07,31,11,47,18.90
2009,07,31,11,48,18.80
2009,07,31,11,49,18.70
2009,07,31,11,50,18.60
2009,07,31,11,51,18.40
2009,07,31,11,52,18.20
2009,07,31,11,53,18.20
2009,07,31,11,54,17.90
2009,07,31,11,55,17.70
2009,07,31,11,56,17.50
2009,07,31,11,57,17.40
2009,07,31,11,58,17.30
2009,07,31,11,59,17.30
2009,07,31,12,00,17.30
2009,07,31,12,01,17.20
2009,07,31,12,02,17.20
2009,07,31,12,03,17.10
2009,07,31,12,04,17.10
2009,07,31,12,05,17.10
2009,07,31,12,06,17.10
2009,07,31,12,07,17.10
2009,07,31,12,08,17.10
2009,07,31,12,09,17.00
2009,07,31,12,10,17.00
2009,07,31,12,11,16.90
2009,07,31,12,12,17.00
2009,07,31,12,13,17.00
2009,07,31,12,14,16.90
2009,07,31,12,15,16.90
2009,07,31,12,16,16.80
2009,07,31,12,17,16.90
2009,07,31,12,18,17.00
2009,07,31,12,19,17.00
2009,07,31,12,20,17.10
2009,07,31,12,21,17.20
2009,07,31,12,22,17.20
2009,07,31,12,23,17.30
2009,07,31,12,24,17.30
2009,07,31,12,25,17.30
2009,07,31,12,26,17.30
2009,07,31,12,27,17.30
2009,07,31,12,28,17.30
2009,07,31,12,29,17.30
2009,07,31,12,30,17.10
2009,07,31,12,31,17.10
2009,07,31,12,32,17.20
2009,07,31,12,33,17.20
2009,07,31,12,34,17.20
2009,07,31,12,35,17.30
2009,07,31,12,36,17.30
2009,07,31,12,37,17.30
2009,07,31,12,38,17.30
2009,07,31,12,39,17.30
2009,07,31,12,40,17.20
2009,07,31,12,41,17.10
2009,07,31,12,42,17.10
2009,07,31,12,43,17.10
2009,07,31,12,44,17.10
2009,07,31,12,45,17.20
2009,07,31,12,46,17.20
2009,07,31,12,47,17.30
2009,07,31,12,48,17.40
2009,07,31,12,49,17.40
2009,07,31,12,50,17.50
2009,07,31,12,51,17.60
2009,07,31,12,52,17.80
2009,07,31,12,53,17.90
2009,07,31,12,54,17.90
2009,07,31,12,55,17.90
2009,07,31,12,56,18.10
2009,07,31,12,57,18.20
2009,07,31,12,58,18.20
2009,07,31,12,59,18.40
2009,07,31,13,00,18.50
2009,07,31,13,01,18.70
2009,07,31,13,02,18.90
2009,07,31,13,03,19.00
2009,07,31,13,04,19.10
2009,07,31,13,05,19.10
2009,07,31,13,06,19.20
2009,07,31,13,07,19.30
2009,07,31,13,08,19.40
2009,07,31,13,09,19.40
2009,07,31,13,10,19.50
2009,07,31,13,11,19.50
2009,07,31,13,12,19.60
2009,07,31,13,13,19.70
2009,07,31,13,14,19.90
2009,07,31,13,15,20.00
2009,07,31,13,16,20.20
2009,07,31,13,17,20.30
2009,07,31,13,18,20.40
2009,07,31,13,19,20.50
2009,07,31,13,20,20.60
2009,07,31,13,21,20.70
2009,07,31,13,22,20.70
2009,07,31,13,23,20.80
2009,07,31,13,24,20.80
2009,07,31,13,25,20.80
2009,07,31,13,26,20.80
2009,07,31,13,27,20.80
2009,07,31,13,28,20.80
2009,07,31,13,29,20.80
2009,07,31,13,30,20.80
2009,07,31,13,31,20.70
2009,07,31,13,32,20.80
2009,07,31,13,33,20.90
2009,07,31,13,34,21.00
2009,07,31,13,35,21.00
2009,07,31,13,36,21.10
2009,07,31,13,37,21.20
2009,07,31,13,38,21.20
2009,07,31,13,39,21.30
2009,07,31,13,40,21.40
2009,07,31,13,41,21.40
2009,07,31,13,42,21.60
2009,07,31,13,43,21.60
2009,07,31,13,44,21.60
2009,07,31,13,45,21.60
2009,07,31,13,46,21.60
2009,07,31,13,47,21.70
2009,07,31,13,48,21.90
2009,07,31,13,49,22.00
2009,07,31,13,50,22.10
2009,07,31,13,51,22.30
2009,07,31,13,52,22.40
2009,07,31,13,53,22.50
2009,07,31,13,54,22.60
2009,07,31,13,55,22.80
2009,07,31,13,56,22.90
2009,07,31,13,57,22.90
2009,07,31,13,58,22.90
2009,07,31,13,59,22.90
2009,07,31,14,00,22.90
2009,07,31,14,01,22.90
2009,07,31,14,02,22.90
2009,07,31,14,03,22.90
2009,07,31,14,04,22.90
2009,07,31,14,05,23.00
2009,07,31,14,06,23.10
2009,07,31,14,07,23.10
2009,07,31,14,08,23.20
2009,07,31,14,09,23.30
2009,07,31,14,10,23.30
2009,07,31,14,11,23.20
2009,07,31,14,12,23.20
2009,07,31,14,13,23.10
2009,07,31,14,14,22.90
2009,07,31,14,15,22.90
2009,07,31,14,16,22.80
2009,07,31,14,17,22.80
2009,07,31,14,18,22.80
2009,07,31,14,19,22.80
2009,07,31,14,20,22.90
2009,07,31,14,21,22.90
2009,07,31,14,22,22.90
2009,07,31,14,23,23.00
2009,07,31,14,24,23.10
2009,07,31,14,25,23.20
2009,07,31,14,26,23.30
2009,07,31,14,27,23.30
2009,07,31,14,28,23.30
2009,07,31,14,29,23.30
2009,07,31,14,30,23.30
2009,07,31,14,31,23.30
2009,07,31,14,32,23.30
2009,07,31,14,33,23.30
2009,07,31,14,34,23.30
2009,07,31,14,35,23.20
2009,07,31,14,36,23.20
2009,07,31,14,37,23.20
2009,07,31,14,38,23.30
2009,07,31,14,39,23.30
2009,07,31,14,40,23.40
2009,07,31,14,41,23.40
2009,07,31,14,42,23.40
2009,07,31,14,43,23.60
2009,07,31,14,44,23.60
2009,07,31,14,45,23.70
2009,07,31,14,46,23.80
2009,07,31,14,47,23.90
2009,07,31,14,48,23.80
2009,07,31,14,49,23.80
2009,07,31,14,50,23.70
2009,07,31,14,51,23.80
2009,07,31,14,52,23.80
2009,07,31,14,53,23.70
2009,07,31,14,54,23.70
2009,07,31,14,55,23.70
2009,07,31,14,56,23.70
2009,07,31,14,57,23.70
2009,07,31,14,58,23.70
2009,07,31,14,59,23.70
2009,07,31,15,00,23.70
2009,07,31,15,01,23.70
2009,07,31,15,02,23.70
2009,07,31,15,03,23.70
2009,07,31,15,04,23.70
2009,07,31,15,05,23.60
2009,07,31,15,06,23.60
2009,07,31,15,07,23.60
2009,07,31,15,08,23.70
2009,07,31,15,09,23.70
2009,07,31,15,10,23.70
2009,07,31,15,11,23.70
2009,07,31,15,12,23.70
2009,07,31,15,13,23.70
2009,07,31,15,14,23.70
2009,07,31,15,15,23.70
2009,07,31,15,16,23.80
2009,07,31,15,17,23.80
2009,07,31,15,18,23.90
2009,07,31,15,19,23.90
2009,07,31,15,20,23.90
2009,07,31,15,21,23.90
2009,07,31,15,22,23.90
2009,07,31,15,23,23.90
2009,07,31,15,24,23.80
2009,07,31,15,25,23.80
2009,07,31,15,26,23.80
2009,07,31,15,27,23.70
2009,07,31,15,28,23.70
2009,07,31,15,29,23.60
2009,07,31,15,30,23.60
2009,07,31,15,31,23.70
2009,07,31,15,32,23.80
2009,07,31,15,33,23.90
2009,07,31,15,34,24.10
2009,07,31,15,35,24.10
2009,07,31,15,36,24.20
2009,07,31,15,37,24.20
2009,07,31,15,38,24.30
2009,07,31,15,39,24.30
2009,07,31,15,40,24.40
2009,07,31,15,41,24.40
2009,07,31,15,42,24.40
2009,07,31,15,43,24.40
2009,07,31,15,44,24.40
2009,07,31,15,45,24.40
2009,07,31,15,46,24.40
2009,07,31,15,47,24.40
2009,07,31,15,48,24.40
2009,07,31,15,49,24.40
2009,07,31,15,50,24.40
2009,07,31,15,51,24.30
2009,07,31,15,52,24.30
2009,07,31,15,53,24.40
2009,07,31,15,54,24.50
2009,07,31,15,55,24.60
2009,07,31,15,56,24.70
2009,07,31,15,57,24.80
2009,07,31,15,58,24.90
2009,07,31,15,59,24.90
2009,07,31,16,00,25.00
2009,07,31,16,01,25.10
2009,07,31,16,02,25.20
2009,07,31,16,03,25.20
2009,07,31,16,04,25.30
2009,07,31,16,05,25.40
2009,07,31,16,06,25.40
2009,07,31,16,07,25.50
2009,07,31,16,08,25.50
2009,07,31,16,09,25.50
2009,07,31,16,10,25.60
2009,07,31,16,11,25.60
2009,07,31,16,12,25.70
2009,07,31,16,13,25.70
2009,07,31,16,14,25.70
2009,07,31,16,15,25.80
2009,07,31,16,16,25.80
2009,07,31,16,17,25.70
2009,07,31,16,18,25.80
2009,07,31,16,19,25.80
2009,07,31,16,20,25.90
2009,07,31,16,21,25.90
2009,07,31,16,22,25.90
2009,07,31,16,23,26.00
2009,07,31,16,24,26.00
2009,07,31,16,25,26.00
2009,07,31,16,26,26.00
2009,07,31,16,27,25.90
2009,07,31,16,28,26.00
2009,07,31,16,29,26.00
2009,07,31,16,30,26.10
2009,07,31,16,31,26.00
2009,07,31,16,32,26.00
2009,07,31,16,33,26.00
2009,07,31,16,34,26.00
2009,07,31,16,35,26.10
2009,07,31,16,36,26.20
2009,07,31,16,37,26.20
2009,07,31,16,38,26.30
2009,07,31,16,39,26.30
2009,07,31,16,40,26.40
2009,07,31,16,41,26.40
2009,07,31,16,42,26.50
2009,07,31,16,43,26.60
2009,07,31,16,44,26.60
2009,07,31,16,45,26.60
2009,07,31,16,46,26.60
2009,07,31,16,47,26.60
2009,07,31,16,48,26.60
2009,07,31,16,49,26.70
2009,07,31,16,50,26.70
2009,07,31,16,51,26.70
2009,07,31,16,52,26.70
2009,07,31,16,53,26.70
2009,07,31,16,54,26.80
2009,07,31,16,55,26.60
2009,07,31,16,56,26.50
2009,07,31,16,57,26.40
2009,07,31,16,58,26.20
2009,07,31,16,59,26.00
2009,07,31,17,00,25.80
2009,07,31,17,01,25.70
2009,07,31,17,02,25.50
2009,07,31,17,03,25.50
2009,07,31,17,04,25.40
2009,07,31,17,05,25.40
2009,07,31,17,06,25.40
2009,07,31,17,07,25.40
2009,07,31,17,08,25.40
2009,07,31,17,09,25.40
2009,07,31,17,10,25.50
2009,07,31,17,11,25.50
2009,07,31,17,12,25.50
2009,07,31,17,13,25.40
2009,07,31,17,14,25.40
2009,07,31,17,15,25.30
2009,07,31,17,16,25.30
2009,07,31,17,17,25.30
2009,07,31,17,18,25.30
2009,07,31,17,19,25.20